EDT,Max TemperatureF,Mean TemperatureF,Min TemperatureF,Max Dew PointF,MeanDew PointF,Min DewpointF,Max Humidity, Mean Humidity, Min Humidity, Max Sea Level PressureIn, Mean Sea Level PressureIn, Min Sea Level PressureIn, Max VisibilityMiles, Mean VisibilityMiles, Min VisibilityMiles, Max Wind SpeedMPH, Mean Wind SpeedMPH, Max Gust SpeedMPH,PrecipitationIn, CloudCover, Events, WindDirDegrees
2013-9-1,83,76,69,71,69,67,100,81,62,29.88,29.85,29.81,10,9,3,10,4,13,0.03,2,Rain,189
2013-9-2,85,77,69,72,69,66,97,79,61,29.89,29.85,29.79,10,8,2,10,3,16,0.00,5,Rain-Thunderstorm,232
2013-9-3,76,66,55,66,61,54,100,77,53,30.09,29.96,29.88,10,5,0,13,4,17,0.00,4,Fog,336
2013-9-4,78,65,52,60,55,51,100,74,47,30.19,30.14,30.09,10,5,0,8,2,12,0.00,2,Fog,291
2013-9-5,81,69,56,63,59,50,100,76,51,30.22,30.17,30.14,10,10,5,15,4,18,0.00,1,,340
2013-9-6,78,64,49,50,49,47,93,72,51,30.28,30.22,30.17,10,10,5,7,3,,0.00,0,,25
2013-9-7,84,67,50,,,,,,,30.16,30.10,30.02,10,7,0,8,3,,0.00,1,Fog,233
2013-9-8,85,74,62,,,,,,,30.07,30.01,29.98,10,10,10,7,3,,0.00,1,,310
2013-9-9,88,77,65,,,,,,,30.13,30.09,30.05,10,8,0,8,5,,0.00,3,Fog,186
2013-9-10,90,81,71,,,,,,,30.20,30.16,30.10,10,10,10,8,3,,T,2,Rain,218
2013-9-11,86,79,72,72,72,72,61,61,61,30.21,30.15,30.08,10,7,5,8,1,,T,2,Rain-Thunderstorm,206
2013-9-12,79,74,68,,,,,,,30.04,29.94,29.85,10,6,2,7,5,9,0.10,5,Rain-Thunderstorm,217
2013-9-13,69,60,50,,,,,,,30.09,29.97,29.85,10,9,2,10,6,24,0.08,6,Rain,334
2013-9-14,69,57,44,,,,,,,30.20,30.16,30.10,10,9,7,8,2,13,0.00,1,,8
2013-9-15,73,59,45,,,,,,,30.21,30.17,30.09,10,5,0,12,2,15,0.00,3,Fog,191
2013-9-16,71,63,55,55,54,51,93,71,49,30.32,30.20,30.09,10,7,2,14,4,21,0.18,7,Rain,347
2013-9-17,75,62,49,55,51,47,100,71,41,30.38,30.32,30.25,10,10,7,9,3,13,0.00,1,,66
2013-9-18,67,59,51,63,57,50,100,84,67,30.25,30.20,30.14,10,8,4,8,3,16,0.00,6,,173
2013-9-19,73,68,63,66,63,61,100,87,73,30.18,30.13,30.05,8,5,2,9,2,13,T,8,,167
2013-9-20,83,73,63,70,66,62,100,79,58,30.08,30.01,29.85,10,5,1,12,4,15,0.01,5,Rain-Thunderstorm,169
2013-9-21,71,63,55,68,60,54,100,92,84,29.86,29.80,29.72,10,4,0,25,4,36,0.96,6,Fog-Rain,207
2013-9-22,65,56,46,57,52,46,100,78,56,30.06,29.93,29.86,10,5,0,13,3,17,0.00,5,Fog,353
2013-9-23,63,52,41,51,44,39,100,76,51,30.18,30.12,30.06,10,4,0,14,3,16,0.00,3,Fog,54
2013-9-24,70,55,39,52,45,39,100,72,44,30.15,30.10,30.00,10,5,0,7,1,9,0.00,2,Fog,10
2013-9-25,73,60,47,62,52,46,100,81,61,30.00,29.95,29.91,10,3,0,5,0,7,0.00,3,Fog,40
2013-9-26,79,66,52,57,54,46,100,92,84,30.11,30.01,29.94,10,5,0,9,2,17,0.00,1,Fog,34
2013-9-27,78,62,45,56,48,45,100,67,33,30.21,30.16,30.11,10,5,0,6,0,9,0.00,2,Fog,110
2013-9-28,76,63,49,59,53,48,100,73,46,30.27,30.20,30.14,10,5,0,9,2,14,0.00,1,Fog,142
2013-9-29,74,62,50,63,55,48,100,79,57,30.16,30.11,30.04,10,8,2,9,2,12,T,2,,141
2013-9-30,73,65,56,61,58,55,100,81,61,30.09,30.06,30.02,10,4,0,10,1,15,0.00,6,Fog,217